CW5834 Weather Reports


time (UTC)temp
F
wind
direction
speed
knots
gust
knots
rain 1hr
in
rain 24hr
in
rain mn
in
humidity
%
barometer
mb
20260504040516 46 0.0 0.9 0.00 0.00 0.00 74 1017.8
20260504035537 47 0.0 0.0 0.00 0.00 0.00 72 1017.6
20260504034517 48 0.0 1.7 0.00 0.00 0.00 70 1017.6
20260504033517 48 0.0 0.9 0.00 0.00 0.00 69 1017.5
20260504032517 49 0.0 1.7 0.00 0.00 0.00 69 1017.8
20260504031517 49 0.0 0.9 0.00 0.00 0.00 67 1017.8
20260504030516 50 0.0 0.0 0.00 0.00 0.00 66 1017.3
20260504025517 49 0.0 0.9 0.00 0.00 0.00 66 1017.4
20260504024516 49 0.0 0.0 0.00 0.00 0.00 68 1017.5
20260504023536 50 0.0 0.0 0.00 0.00 0.00 65 1017.5
20260504022517 51 0.0 1.7 0.00 0.00 0.00 63 1017.4
20260504021517 51 0 0.9 0.9 0.00 0.00 0.00 65 1017.2
20260504020516 51 0 0.9 0.9 0.00 0.00 0.00 64 1017.2
20260504015516 51 0.0 1.7 0.00 0.00 0.00 64 1017.2
20260504014517 51 338 0.9 0.9 0.00 0.00 0.00 61 1017.3
20260504013537 51 0 0.9 0.9 0.00 0.00 0.00 62 1017.1
20260504012516 51 0 0.9 0.9 0.00 0.00 0.00 62 1017.1
20260504011517 52 0.0 1.7 0.00 0.00 0.00 57 1017.0
20260504010517 53 0.0 0.9 0.00 0.00 0.00 58 1016.9
20260504005517 53 0.0 1.7 0.00 0.00 0.00 57 1017.2
20260504004536 54 0 0.9 0.9 0.00 0.00 0.00 55 1017.0
20260504003516 54 0.0 0.9 0.00 0.00 0.00 55 1016.6
20260504002516 55 0 0.9 0.9 0.00 0.00 0.00 53 1016.7
20260504001536 56 23 0.9 0.9 0.00 0.00 0.00 53 1016.5
20260504000523 57 315 0.9 1.7 0.00 0.00 0.00 50 1016.2
20260503235516 59 0.0 1.7 0.00 0.00 0.00 46 1016.3
20260503234556 60 0.0 1.7 0.00 0.00 0.00 44 1016.5
20260503233516 61 248 0.9 3.5 0.00 0.00 0.00 41 1016.7
20260503232516 62 293 0.9 1.7 0.00 0.00 0.00 40 1016.7
20260503231516 63 225 0.9 2.6 0.00 0.00 0.00 39 1016.9
20260503230516 63 270 0.9 3.5 0.00 0.00 0.00 39 1016.9
20260503225516 64 203 1.7 3.5 0.00 0.00 0.00 40 1017.2
20260503224516 64 225 1.7 3.5 0.00 0.00 0.00 39 1017.1
20260503223536 64 203 3.5 7.8 0.00 0.00 0.00 39 1017.2
20260503222516 64 225 3.5 6.1 0.00 0.00 0.00 38 1017.5
20260503221516 64 203 1.7 4.3 0.00 0.00 0.00 36 1017.5
20260503220516 65 225 1.7 3.5 0.00 0.00 0.00 36 1017.7
20260503215516 64 180 2.6 7.0 0.00 0.00 0.00 38 1017.7
20260503214516 65 225 1.7 4.3 0.00 0.00 0.00 39 1017.7
20260503213516 64 203 1.7 3.5 0.00 0.00 0.00 38 1018.0
20260503212516 64 225 2.6 5.2 0.00 0.00 0.00 36 1018.1
20260503211516 64 293 2.6 5.2 0.00 0.00 0.00 38 1018.1
20260503210536 64 225 2.6 6.1 0.00 0.00 0.00 37 1018.1
20260503205536 65 203 0.9 4.3 0.00 0.00 0.00 38 1018.3
20260503204516 64 203 3.5 8.7 0.00 0.00 0.00 37 1018.3
20260503203516 64 203 1.7 3.5 0.00 0.00 0.00 43 1018.5
20260503202521 64 203 1.7 4.3 0.00 0.00 0.00 37 1018.7
20260503201516 64 225 1.7 4.3 0.00 0.00 0.00 41 1018.8
20260503200515 64 203 2.6 7.8 0.00 0.00 0.00 39 1019.0
20260503195536 63 225 1.7 6.1 0.00 0.00 0.00 38 1019.1
20260503194516 63 203 2.6 7.8 0.00 0.00 0.00 40 1019.2
20260503193515 62 180 0.9 2.6 0.00 0.00 0.00 45 1019.4
20260503192516 62 225 3.5 7.0 0.00 0.00 0.00 41 1019.5
20260503191516 62 225 1.7 5.2 0.00 0.00 0.00 39 1019.6
20260503190515 62 225 4.3 7.8 0.00 0.00 0.00 42 1019.8
20260503185515 63 315 1.7 5.2 0.00 0.00 0.00 40 1019.9
20260503184516 62 180 2.6 6.1 0.00 0.00 0.00 42 1019.9
20260503183515 61 203 1.7 4.3 0.00 0.00 0.00 45 1020.1
20260503182516 61 225 2.6 6.1 0.00 0.00 0.00 41 1020.3
20260503181515 61 180 2.6 6.1 0.00 0.00 0.00 42 1020.4
20260503180515 60 225 2.6 5.2 0.00 0.00 0.00 44 1020.6
20260503175515 60 203 2.6 6.1 0.00 0.00 0.00 44 1020.6
20260503174516 60 315 2.6 6.1 0.00 0.00 0.00 39 1020.7
20260503173515 60 338 1.7 4.3 0.00 0.00 0.00 42 1020.8
20260503172516 59 225 1.7 4.3 0.00 0.00 0.00 41 1020.7
20260503171536 60 225 1.7 6.1 0.00 0.00 0.00 47 1021.0
20260503170515 59 158 0.9 3.5 0.00 0.00 0.00 43 1021.2
20260503150517 55 135 0.9 3.5 0.00 0.00 0.00 45 1022.0
20260503130517 51 113 0.9 1.7 0.00 0.00 0.00 62 1022.0
20260503110537 35 0.0 0.0 0.00 0.00 0.00 91 1020.3
20260503081516 38 0.0 1.7 0.00 0.00 0.00 88 1019.2
20260503080516 38 0.0 1.7 0.00 0.00 0.00 88 1019.0
20260503072516 39 0.0 0.9 0.00 0.00 0.00 85 1018.7
20260503071556 40 0.0 1.7 0.00 0.00 0.00 85 1018.4
20260503070536 40 0.0 1.7 0.00 0.00 0.00 85 1018.6
20260503054516 42 0.0 1.7 0.00 0.00 0.00 83 1018.5
20260503053516 42 0.0 0.0 0.00 0.00 0.00 83 1018.5
20260503052516 42 0.0 1.7 0.00 0.00 0.00 83 1018.5
20260503051516 42 0.0 1.7 0.00 0.00 0.00 82 1018.4
20260503050516 42 0.0 1.7 0.00 0.00 0.00 82 1018.3
20260503045516 43 0.0 1.7 0.00 0.00 0.00 83 1018.1
20260503044521 43 0.0 0.9 0.00 0.00 0.00 82 1018.3
20260503043516 43 0.0 1.7 0.00 0.00 0.00 82 1018.0
20260503042516 44 0.0 1.7 0.00 0.00 0.00 80 1018.2
20260503041515 44 180 0.9 1.7 0.00 0.00 0.00 80 1018.3